This demonstration page uses our WeatherBlox Daily Observations layout. Learn more.

Left ArrowRight Arrow

39.12711, -84.51439

Hourly Observations for January 22, 2018

Temp ( °F °C ) Dew Point ( °F °C ) Humidity (%) Winds ( mph kmh ) Pressure ( in mb ) Visibility ( mi km ) Precip ( " mm )
12:53 am 00:53 Mostly Cloudy 43 6.1 43 6.1 100 100 SSE 3 6 30.01 1016 8 13 N/A
1:20 am 01:20 Mostly Clear with Mist and Fog 42 5.6 42 5.6 100 100 N N/A 30.00 1016 2 2 N/A
1:28 am 01:28 Mostly Clear with Fog 43 6.1 43 6.1 100 100 N N/A 30.00 1016 0 0 N/A
1:35 am 01:35 Mostly Cloudy with Fog 41 5 41 5 100 100 N N/A 30.00 1016 0 0 N/A
1:53 am 01:53 Mostly Cloudy with Fog 41 5 41 5 100 100 N N/A 29.99 1016 0 0 N/A
2:13 am 02:13 Mostly Cloudy with Fog 43 6.1 43 6.1 100 100 N N/A 29.97 1015 1 1 N/A
2:37 am 02:37 Cloudy with Fog 42 5.6 42 5.6 100 100 N N/A 29.97 1015 1 1 N/A
2:53 am 02:53 Cloudy with Fog 41 5 41 5 100 100 N N/A 29.98 1015 1 1 N/A
3:00 am 03:00 Cloudy with Fog 41 5 41 5 100 100 N N/A 29.97 1015 1 1 N/A
3:23 am 03:23 Cloudy with Mist and Fog 40 4.4 40 4.4 100 100 N N/A 29.97 1015 2 3 N/A
3:34 am 03:34 Cloudy with Mist and Fog 41 5 41 5 100 100 N N/A 29.97 1015 2 3 N/A
3:37 am 03:37 Cloudy with Mist and Fog 41 5 41 5 100 100 N N/A 29.97 1015 3 5 N/A
3:42 am 03:42 Cloudy with Mist and Fog 41 5 41 5 100 100 N N/A 29.97 1015 2 3 N/A
3:53 am 03:53 Cloudy with Mist and Fog 41 5 41 5 100 100 N N/A 29.97 1015 3 5 N/A
4:00 am 04:00 Cloudy with Mist and Fog 41 5 41 5 100 100 N N/A 29.97 1015 2 2 N/A
4:10 am 04:10 Cloudy with Mist and Fog 41 5 41 5 100 100 N N/A 29.97 1015 1 1 N/A
4:17 am 04:17 Cloudy with Mist and Fog 41 5 41 5 100 100 N N/A 29.97 1015 2 3 N/A
4:24 am 04:24 Cloudy with Mist and Fog 41 5 41 5 100 100 N N/A 29.94 1014 3 5 N/A
4:26 am 04:26 Cloudy with Mist and Fog 41 5 41 5 100 100 N N/A 29.94 1014 2 3 N/A
4:36 am 04:36 Mostly Cloudy with Fog 41 5 41 5 100 100 N N/A 29.94 1014 1 1 N/A
4:53 am 04:53 Mostly Cloudy with Mist and Fog 41 5 41 5 100 100 N N/A 29.95 1014 1 1 N/A
5:17 am 05:17 Cloudy with Mist and Fog 41 5 41 5 100 100 N N/A 29.94 1014 2 3 N/A
5:23 am 05:23 Cloudy with Mist and Fog 41 5 41 5 100 100 N N/A 29.94 1014 3 5 N/A
5:53 am 05:53 Mostly Cloudy 42 5.6 42 5.6 100 100 N N/A 29.91 1013 9 14 N/A
6:53 am 06:53 Clear 39 3.9 39 3.9 100 100 N N/A 29.90 1013 10 16 N/A
7:07 am 07:07 Clear with Mist and Fog 41 5 40 4.4 96 96 N N/A 29.94 1014 2 3 N/A
7:14 am 07:14 Clear 39 3.9 39 3.9 100 100 N N/A 29.91 1013 10 16 N/A
7:53 am 07:53 Partly Cloudy 45 7.2 43 6.1 93 93 WSW 5 7 29.89 1012 10 16 N/A
8:53 am 08:53 Partly Cloudy 53 11.7 45 7.2 74 74 S 8 13 29.89 1012 10 16 N/A
9:53 am 09:53 Partly Cloudy 57 13.9 45 7.2 64 64 S 12 19 29.88 1012 10 16 N/A
10:53 am 10:53 Mostly Cloudy 59 15 45 7.2 60 60 SSW 15 24 29.88 1012 10 16 N/A
11:53 am 11:53 Cloudy with Light Rain 58 14.4 48 8.9 70 70 SSW 12 19 29.90 1012 10 16 0.01 0.25
12:53 pm 12:53 Cloudy with Light Rain 57 13.9 47 8.3 69 69 S 9 15 29.84 1011 10 16 N/A
1:53 pm 13:53 Cloudy with Rain 55 12.8 49 9.4 80 80 S 10 17 29.79 1009 6 10 0.05 1.27
2:53 pm 14:53 Cloudy with Light Rain 55 12.8 49 9.4 80 80 S 8 13 29.74 1007 10 16 0.01 0.25
3:53 pm 15:53 Cloudy 55 12.8 49 9.4 80 80 S 10 17 29.72 1006 10 16 0.02 0.51
4:53 pm 16:53 Cloudy 57 13.9 49 9.4 74 74 S 16 26 29.69 1005 10 16 N/A
5:53 pm 17:53 Cloudy 58 14.4 50 10 75 75 S 14 22 29.66 1005 10 16 N/A
6:53 pm 18:53 Cloudy 58 14.4 51 10.6 78 78 S 13 20 29.65 1004 10 16 N/A
7:53 pm 19:53 Cloudy with Light Rain 58 14.4 52 11.1 81 81 S 14 22 29.62 1003 10 16 N/A
8:53 pm 20:53 Cloudy 58 14.4 52 11.1 81 81 S 13 20 29.59 1002 10 16 0.02 0.51
9:13 pm 21:13 Mostly Cloudy with Nearby Thunderstorms 58 14.4 52 11.1 81 81 S 26 43 29.59 1002 10 16 N/A
9:21 pm 21:21 Windy with Storms Likely 57 13.9 50 10 78 78 SSW 25 41 29.59 1002 8 13 0.01 0.25
9:36 pm 21:36 Mostly Cloudy with Nearby Thunderstorms 56 13.3 52 11.1 87 87 S 14 22 29.59 1002 9 14 0.02 0.51
9:53 pm 21:53 Mostly Clear 56 13.3 50 10 81 81 SSW 18 30 29.57 1002 10 16 0.02 0.51
10:27 pm 22:27 Mostly Cloudy with Light Rain 54 12.2 45 7.2 72 72 WSW 23 37 29.62 1003 10 16 N/A
10:53 pm 22:53 Cloudy 53 11.7 44 6.7 72 72 SW 15 24 29.63 1003 10 16 N/A
11:53 pm 23:53 Clear 50 10 42 5.6 74 74 W 17 28 29.64 1004 10 16 N/A

Powered by AerisWeather